Time,TemperatureF,DewpointF,PressureIn,WindDirection,WindDirectionDegrees,WindSpeedMPH,WindSpeedGustMPH,Humidity,HourlyPrecipIn,Conditions,Clouds,dailyrainin,SoftwareType,DateUTC
2013-07-18 00:01:00,65.1,27.5,26.13,North,0,6.3,7.6,24,0.00,,---,0.00,VWS V14.01,2013-07-18 07:01:00,
2013-07-18 00:06:00,65.1,27.5,26.13,North,0,7.6,8.7,24,0.00,,---,0.00,VWS V14.01,2013-07-18 07:06:00,
2013-07-18 00:11:00,65.5,27.8,26.10,North,0,7.6,8.1,24,0.00,,---,0.00,VWS V14.01,2013-07-18 07:11:00,
2013-07-18 00:16:00,65.5,27.8,26.10,North,0,5.8,5.8,24,0.00,,---,0.00,VWS V14.01,2013-07-18 07:16:00,
2013-07-18 00:21:00,65.5,28.8,26.10,North,0,7.6,7.6,25,0.00,,---,0.00,VWS V14.01,2013-07-18 07:21:00,
2013-07-18 00:26:00,65.5,28.8,26.10,North,0,7.6,7.6,25,0.00,,---,0.00,VWS V14.01,2013-07-18 07:26:00,
2013-07-18 00:31:00,65.3,28.6,26.10,North,0,5.4,8.7,25,0.00,,---,0.00,VWS V14.01,2013-07-18 07:31:00,
2013-07-18 00:36:00,64.9,28.3,26.10,North,0,5.8,6.3,25,0.00,,---,0.00,VWS V14.01,2013-07-18 07:36:00,
2013-07-18 00:41:00,64.8,28.1,26.13,North,0,6.3,7.2,25,0.00,,---,0.00,VWS V14.01,2013-07-18 07:41:00,
2013-07-18 00:46:00,64.8,29.1,26.13,North,0,5.4,6.3,26,0.00,,---,0.00,VWS V14.01,2013-07-18 07:46:00,
2013-07-18 00:51:00,64.2,29.6,26.13,North,0,5.8,6.3,27,0.00,,---,0.00,VWS V14.01,2013-07-18 07:51:00,
2013-07-18 00:56:00,63.7,30.0,26.10,North,0,4.9,5.8,28,0.00,,---,0.00,VWS V14.01,2013-07-18 07:56:00,
2013-07-18 01:01:00,63.1,29.5,26.10,NE,45,3.6,3.6,28,0.00,,---,0.00,VWS V14.01,2013-07-18 08:01:00,
2013-07-18 01:06:00,62.4,31.4,26.10,NNE,22,0.0,0.0,31,0.00,,---,0.00,VWS V14.01,2013-07-18 08:06:00,
2013-07-18 01:11:00,61.7,33.1,26.10,North,0,2.7,3.6,34,0.00,,---,0.00,VWS V14.01,2013-07-18 08:11:00,
2013-07-18 01:16:00,61.3,35.5,26.10,North,0,2.7,2.7,38,0.00,,---,0.00,VWS V14.01,2013-07-18 08:16:00,
2013-07-18 01:21:00,61.3,38.1,26.10,North,0,4.0,4.0,42,0.00,,---,0.00,VWS V14.01,2013-07-18 08:21:00,
2013-07-18 01:26:00,61.3,40.4,26.10,North,0,4.0,4.9,46,0.00,,---,0.00,VWS V14.01,2013-07-18 08:26:00,
2013-07-18 01:31:00,61.5,42.2,26.10,North,0,5.4,5.4,49,0.00,,---,0.00,VWS V14.01,2013-07-18 08:31:00,
2013-07-18 01:36:00,61.7,44.4,26.10,North,0,5.8,5.8,53,0.00,,---,0.00,VWS V14.01,2013-07-18 08:36:00,
2013-07-18 01:41:00,61.9,45.1,26.13,North,0,5.8,5.8,54,0.00,,---,0.00,VWS V14.01,2013-07-18 08:41:00,
2013-07-18 01:46:00,61.9,45.5,26.13,North,0,4.0,6.3,55,0.00,,---,0.00,VWS V14.01,2013-07-18 08:46:00,
2013-07-18 01:51:00,61.9,46.0,26.13,NE,45,2.7,4.0,56,0.00,,---,0.00,VWS V14.01,2013-07-18 08:51:00,
2013-07-18 01:56:00,61.9,46.5,26.10,NNW,338,3.1,4.0,57,0.00,,---,0.00,VWS V14.01,2013-07-18 08:56:00,
2013-07-18 02:01:00,61.7,46.3,26.10,North,0,4.9,4.9,57,0.00,,---,0.00,VWS V14.01,2013-07-18 09:01:00,
2013-07-18 02:06:00,61.7,46.8,26.10,North,0,5.4,5.4,58,0.00,,---,0.00,VWS V14.01,2013-07-18 09:06:00,
2013-07-18 02:11:00,61.7,46.3,26.10,North,0,4.9,4.9,57,0.00,,---,0.00,VWS V14.01,2013-07-18 09:11:00,
2013-07-18 02:16:00,61.7,46.3,26.10,North,0,5.8,5.8,57,0.00,,---,0.00,VWS V14.01,2013-07-18 09:16:00,
2013-07-18 02:21:00,61.9,46.5,26.10,North,0,3.6,5.4,57,0.00,,---,0.00,VWS V14.01,2013-07-18 09:21:00,
2013-07-18 02:26:00,61.9,46.5,26.10,North,0,6.3,6.3,57,0.00,,---,0.00,VWS V14.01,2013-07-18 09:26:00,
2013-07-18 02:31:00,61.9,46.5,26.10,North,0,5.4,5.4,57,0.00,,---,0.00,VWS V14.01,2013-07-18 09:31:00,
2013-07-18 02:36:00,61.9,46.0,26.10,North,0,4.9,4.9,56,0.00,,---,0.00,VWS V14.01,2013-07-18 09:36:00,
2013-07-18 02:41:00,61.9,46.0,26.10,North,0,5.4,6.3,56,0.00,,---,0.00,VWS V14.01,2013-07-18 09:41:00,
2013-07-18 02:46:00,61.9,45.5,26.10,North,0,5.8,6.3,55,0.00,,---,0.00,VWS V14.01,2013-07-18 09:46:00,
2013-07-18 02:51:00,62.1,45.7,26.10,North,0,5.8,5.8,55,0.00,,---,0.00,VWS V14.01,2013-07-18 09:51:00,
2013-07-18 02:56:00,62.1,45.2,26.10,North,0,5.4,5.4,54,0.00,,---,0.00,VWS V14.01,2013-07-18 09:56:00,
2013-07-18 03:01:00,61.9,45.1,26.10,North,0,4.9,5.4,54,0.00,,---,0.00,VWS V14.01,2013-07-18 10:01:00,
2013-07-18 03:06:00,61.9,45.1,26.10,North,0,5.4,5.8,54,0.00,,---,0.00,VWS V14.01,2013-07-18 10:06:00,
2013-07-18 03:11:00,61.7,44.4,26.10,North,0,4.9,5.8,53,0.00,,---,0.00,VWS V14.01,2013-07-18 10:11:00,
2013-07-18 03:16:00,61.7,44.4,26.10,North,0,5.8,6.3,53,0.00,,---,0.00,VWS V14.01,2013-07-18 10:16:00,
2013-07-18 03:21:00,61.7,44.4,26.10,North,0,2.7,5.4,53,0.00,,---,0.00,VWS V14.01,2013-07-18 10:21:00,
2013-07-18 03:26:00,61.3,44.6,26.10,North,0,4.9,4.9,54,0.00,,---,0.00,VWS V14.01,2013-07-18 10:26:00,
2013-07-18 03:31:00,60.8,44.5,26.10,North,0,3.1,4.9,55,0.00,,---,0.00,VWS V14.01,2013-07-18 10:31:00,
2013-07-18 03:36:00,60.6,44.8,26.10,North,0,4.0,4.0,56,0.00,,---,0.00,VWS V14.01,2013-07-18 10:36:00,
2013-07-18 03:41:00,60.6,44.8,26.10,North,0,2.7,4.0,56,0.00,,---,0.00,VWS V14.01,2013-07-18 10:41:00,
2013-07-18 03:46:00,60.3,45.0,26.10,North,0,3.6,4.9,57,0.00,,---,0.00,VWS V14.01,2013-07-18 10:46:00,
2013-07-18 03:51:00,60.1,45.3,26.10,North,0,4.9,4.9,58,0.00,,---,0.00,VWS V14.01,2013-07-18 10:51:00,
2013-07-18 03:56:00,60.1,45.3,26.10,North,0,4.9,4.9,58,0.00,,---,0.00,VWS V14.01,2013-07-18 10:56:00,
2013-07-18 04:01:00,59.9,45.1,26.10,NNE,22,2.7,3.1,58,0.00,,---,0.00,VWS V14.01,2013-07-18 11:01:00,
2013-07-18 04:06:00,59.7,45.4,26.10,North,0,5.4,5.4,59,0.00,,---,0.00,VWS V14.01,2013-07-18 11:06:00,
2013-07-18 04:11:00,59.5,45.7,26.10,North,0,4.9,5.4,60,0.00,,---,0.00,VWS V14.01,2013-07-18 11:11:00,
2013-07-18 04:16:00,59.5,45.7,26.10,North,0,4.5,4.9,60,0.00,,---,0.00,VWS V14.01,2013-07-18 11:16:00,
2013-07-18 04:21:00,59.5,45.2,26.10,NE,45,4.0,5.4,59,0.00,,---,0.00,VWS V14.01,2013-07-18 11:21:00,
2013-07-18 04:26:00,59.4,45.5,26.10,North,0,5.8,5.8,60,0.00,,---,0.00,VWS V14.01,2013-07-18 11:26:00,
2013-07-18 04:31:00,59.4,45.5,26.10,North,0,4.9,5.4,60,0.00,,---,0.00,VWS V14.01,2013-07-18 11:31:00,
2013-07-18 04:36:00,59.4,45.5,26.10,North,0,4.9,4.9,60,0.00,,---,0.00,VWS V14.01,2013-07-18 11:36:00,
2013-07-18 04:41:00,59.2,45.3,26.10,North,0,4.0,4.9,60,0.00,,---,0.00,VWS V14.01,2013-07-18 11:41:00,
2013-07-18 04:46:00,59.2,44.9,26.10,North,0,3.6,3.6,59,0.00,,---,0.00,VWS V14.01,2013-07-18 11:46:00,
2013-07-18 04:51:00,59.2,44.9,26.10,North,0,4.0,5.8,59,0.00,,---,0.00,VWS V14.01,2013-07-18 11:51:00,
2013-07-18 04:56:00,59.2,44.9,26.10,North,0,3.1,3.1,59,0.00,,---,0.00,VWS V14.01,2013-07-18 11:56:00,
2013-07-18 05:01:00,59.2,44.9,26.10,North,0,4.5,4.5,59,0.00,,---,0.00,VWS V14.01,2013-07-18 12:01:00,
2013-07-18 05:06:00,59.2,44.9,26.10,North,0,4.0,4.0,59,0.00,,---,0.00,VWS V14.01,2013-07-18 12:06:00,
2013-07-18 05:11:00,58.6,44.4,26.10,North,0,4.0,4.0,59,0.00,,---,0.00,VWS V14.01,2013-07-18 12:11:00,
2013-07-18 05:16:00,58.6,44.4,26.10,North,0,4.0,4.0,59,0.00,,---,0.00,VWS V14.01,2013-07-18 12:16:00,
2013-07-18 05:21:00,58.6,44.8,26.10,North,0,4.9,4.9,60,0.00,,---,0.00,VWS V14.01,2013-07-18 12:21:00,
2013-07-18 05:26:00,58.6,44.8,26.10,North,0,4.0,5.4,60,0.00,,---,0.00,VWS V14.01,2013-07-18 12:26:00,
2013-07-18 05:31:00,59.0,44.3,26.10,North,0,5.4,5.4,58,0.00,,---,0.00,VWS V14.01,2013-07-18 12:31:00,
2013-07-18 05:36:00,59.2,44.4,26.10,North,0,3.1,4.9,58,0.00,,---,0.00,VWS V14.01,2013-07-18 12:36:00,
2013-07-18 05:41:00,59.2,43.5,26.10,North,0,3.1,4.9,56,0.00,,---,0.00,VWS V14.01,2013-07-18 12:41:00,
2013-07-18 05:46:00,59.2,44.0,26.10,North,0,4.9,4.9,57,0.00,,---,0.00,VWS V14.01,2013-07-18 12:46:00,
2013-07-18 05:51:00,59.4,43.7,26.10,North,0,3.6,4.0,56,0.00,,---,0.00,VWS V14.01,2013-07-18 12:51:00,
2013-07-18 05:56:00,59.4,43.7,26.10,North,0,5.4,5.4,56,0.00,,---,0.00,VWS V14.01,2013-07-18 12:56:00,
2013-07-18 06:01:00,59.5,43.8,26.10,North,0,5.4,5.4,56,0.00,,---,0.00,VWS V14.01,2013-07-18 13:01:00,
2013-07-18 06:06:00,59.7,43.5,26.10,North,0,0.0,0.0,55,0.00,,---,0.00,VWS V14.01,2013-07-18 13:06:00,
2013-07-18 06:11:00,60.3,43.6,26.10,North,0,5.4,5.4,54,0.00,,---,0.00,VWS V14.01,2013-07-18 13:11:00,
2013-07-18 06:16:00,60.6,43.4,26.10,North,0,4.9,5.4,53,0.00,,---,0.00,VWS V14.01,2013-07-18 13:16:00,
2013-07-18 06:21:00,60.6,43.4,26.10,North,0,4.9,4.9,53,0.00,,---,0.00,VWS V14.01,2013-07-18 13:21:00,
2013-07-18 06:26:00,60.8,43.1,26.10,North,0,5.8,5.8,52,0.00,,---,0.00,VWS V14.01,2013-07-18 13:26:00,
2013-07-18 06:31:00,61.0,42.7,26.10,North,0,0.0,0.0,51,0.00,,---,0.00,VWS V14.01,2013-07-18 13:31:00,
2013-07-18 06:36:00,61.3,43.1,26.10,North,0,5.4,5.4,51,0.00,,---,0.00,VWS V14.01,2013-07-18 13:36:00,
2013-07-18 06:41:00,61.9,43.1,26.13,North,0,4.0,5.8,50,0.00,,---,0.00,VWS V14.01,2013-07-18 13:41:00,
2013-07-18 06:46:00,62.6,42.7,26.13,North,0,3.6,3.6,48,0.00,,---,0.00,VWS V14.01,2013-07-18 13:46:00,
2013-07-18 06:51:00,63.3,42.8,26.13,North,0,5.8,5.8,47,0.00,,---,0.00,VWS V14.01,2013-07-18 13:51:00,
2013-07-18 06:56:00,64.0,42.9,26.13,North,0,4.5,4.9,46,0.00,,---,0.00,VWS V14.01,2013-07-18 13:56:00,
2013-07-18 07:01:00,64.4,43.2,26.13,North,0,4.9,4.9,46,0.00,,---,0.00,VWS V14.01,2013-07-18 14:01:00,
2013-07-18 07:06:00,64.9,42.5,26.13,NE,45,4.0,6.7,44,0.00,,---,0.00,VWS V14.01,2013-07-18 14:06:00,
2013-07-18 07:11:00,65.5,43.0,26.13,North,0,3.1,5.4,44,0.00,,---,0.00,VWS V14.01,2013-07-18 14:11:00,
2013-07-18 07:16:00,65.7,42.6,26.13,North,0,4.9,5.4,43,0.00,,---,0.00,VWS V14.01,2013-07-18 14:16:00,
2013-07-18 07:21:00,66.0,42.9,26.13,North,0,3.6,3.6,43,0.00,,---,0.00,VWS V14.01,2013-07-18 14:21:00,
2013-07-18 07:26:00,66.6,43.4,26.16,North,0,4.0,4.0,43,0.00,,---,0.00,VWS V14.01,2013-07-18 14:26:00,
2013-07-18 07:31:00,66.9,43.1,26.16,North,0,3.1,5.4,42,0.00,,---,0.00,VWS V14.01,2013-07-18 14:31:00,
2013-07-18 07:36:00,66.9,41.8,26.16,North,0,5.4,5.4,40,0.00,,---,0.00,VWS V14.01,2013-07-18 14:36:00,
2013-07-18 07:41:00,67.3,42.2,26.16,NW,315,3.6,5.4,40,0.00,,---,0.00,VWS V14.01,2013-07-18 14:41:00,
2013-07-18 07:46:00,67.6,42.5,26.16,North,0,3.1,3.1,40,0.00,,---,0.00,VWS V14.01,2013-07-18 14:46:00,
2013-07-18 07:51:00,68.0,40.8,26.16,NE,45,4.9,4.9,37,0.00,,---,0.00,VWS V14.01,2013-07-18 14:51:00,
2013-07-18 07:56:00,68.4,41.1,26.16,NE,45,6.3,6.3,37,0.00,,---,0.00,VWS V14.01,2013-07-18 14:56:00,
2013-07-18 08:01:00,68.4,41.1,26.16,North,0,8.7,8.7,37,0.00,,---,0.00,VWS V14.01,2013-07-18 15:01:00,
2013-07-18 08:06:00,68.2,40.9,26.16,NNW,338,6.3,6.3,37,0.00,,---,0.00,VWS V14.01,2013-07-18 15:06:00,
2013-07-18 08:11:00,68.2,40.2,26.19,North,0,4.0,5.4,36,0.00,,---,0.00,VWS V14.01,2013-07-18 15:11:00,
2013-07-18 08:16:00,68.2,40.2,26.19,NNW,338,6.3,6.3,36,0.00,,---,0.00,VWS V14.01,2013-07-18 15:16:00,
2013-07-18 08:21:00,67.8,40.6,26.19,North,0,8.7,8.7,37,0.00,,---,0.00,VWS V14.01,2013-07-18 15:21:00,
2013-07-18 08:26:00,67.8,40.6,26.19,North,0,6.3,6.3,37,0.00,,---,0.00,VWS V14.01,2013-07-18 15:26:00,
2013-07-18 08:31:00,68.2,40.9,26.19,North,0,3.6,8.1,37,0.00,,---,0.00,VWS V14.01,2013-07-18 15:31:00,
2013-07-18 08:36:00,68.4,41.1,26.19,North,0,5.8,6.3,37,0.00,,---,0.00,VWS V14.01,2013-07-18 15:36:00,
2013-07-18 08:41:00,68.4,41.1,26.19,North,0,8.7,8.7,37,0.00,,---,0.00,VWS V14.01,2013-07-18 15:41:00,
2013-07-18 08:46:00,68.4,40.4,26.19,ENE,68,7.6,7.6,36,0.00,,---,0.00,VWS V14.01,2013-07-18 15:46:00,
2013-07-18 08:51:00,68.9,41.6,26.19,North,0,4.0,4.9,37,0.00,,---,0.00,VWS V14.01,2013-07-18 15:51:00,
2013-07-18 08:56:00,69.4,42.1,26.19,ENE,68,5.8,8.3,37,0.00,,---,0.00,VWS V14.01,2013-07-18 15:56:00,
2013-07-18 09:01:00,69.4,41.3,26.19,North,0,4.9,5.8,36,0.00,,---,0.00,VWS V14.01,2013-07-18 16:01:00,
2013-07-18 09:06:00,69.1,41.0,26.19,NNE,22,5.8,5.8,36,0.00,,---,0.00,VWS V14.01,2013-07-18 16:06:00,
2013-07-18 09:11:00,69.1,41.0,26.19,NE,45,4.0,4.9,36,0.00,,---,0.00,VWS V14.01,2013-07-18 16:11:00,
2013-07-18 09:16:00,69.6,42.2,26.19,North,0,5.8,6.3,37,0.00,,---,0.00,VWS V14.01,2013-07-18 16:16:00,
2013-07-18 09:21:00,69.8,40.9,26.19,NNW,338,4.9,4.9,35,0.00,,---,0.00,VWS V14.01,2013-07-18 16:21:00,
2013-07-18 09:26:00,70.2,41.3,26.19,North,0,7.2,7.2,35,0.00,,---,0.00,VWS V14.01,2013-07-18 16:26:00,
2013-07-18 09:31:00,70.0,41.1,26.19,North,0,3.1,5.8,35,0.00,,---,0.00,VWS V14.01,2013-07-18 16:31:00,
2013-07-18 09:36:00,70.0,41.1,26.19,North,0,3.1,4.0,35,0.00,,---,0.00,VWS V14.01,2013-07-18 16:36:00,
2013-07-18 09:41:00,70.3,41.4,26.19,North,0,4.9,4.9,35,0.00,,---,0.00,VWS V14.01,2013-07-18 16:41:00,
2013-07-18 09:46:00,70.9,41.9,26.19,North,0,3.1,4.5,35,0.00,,---,0.00,VWS V14.01,2013-07-18 16:46:00,
2013-07-18 09:51:00,70.7,41.0,26.19,North,0,5.8,5.8,34,0.00,,---,0.00,VWS V14.01,2013-07-18 16:51:00,
2013-07-18 09:56:00,70.7,41.0,26.19,North,0,7.6,7.6,34,0.00,,---,0.00,VWS V14.01,2013-07-18 16:56:00,
2013-07-18 10:01:00,71.1,41.3,26.19,NNW,338,5.8,5.8,34,0.00,,---,0.00,VWS V14.01,2013-07-18 17:01:00,
2013-07-18 10:06:00,71.4,41.6,26.19,North,0,3.6,4.9,34,0.00,,---,0.00,VWS V14.01,2013-07-18 17:06:00,
2013-07-18 10:11:00,71.4,41.6,26.19,NNE,22,0.0,3.6,34,0.00,,---,0.00,VWS V14.01,2013-07-18 17:11:00,
2013-07-18 10:16:00,71.2,41.5,26.19,ENE,68,3.1,5.8,34,0.00,,---,0.00,VWS V14.01,2013-07-18 17:16:00,
2013-07-18 10:21:00,71.6,41.8,26.19,East,90,2.7,4.0,34,0.00,,---,0.00,VWS V14.01,2013-07-18 17:21:00,
2013-07-18 10:26:00,72.0,41.3,26.22,East,90,4.0,4.9,33,0.00,,---,0.00,VWS V14.01,2013-07-18 17:26:00,
2013-07-18 10:31:00,71.8,41.2,26.22,North,0,4.0,6.3,33,0.00,,---,0.00,VWS V14.01,2013-07-18 17:31:00,
2013-07-18 10:36:00,72.0,41.3,26.22,NNW,338,4.9,4.9,33,0.00,,---,0.00,VWS V14.01,2013-07-18 17:36:00,
2013-07-18 10:41:00,71.8,41.2,26.22,North,0,4.9,5.4,33,0.00,,---,0.00,VWS V14.01,2013-07-18 17:41:00,
2013-07-18 10:46:00,72.5,41.8,26.22,NNW,338,5.8,5.8,33,0.00,,---,0.00,VWS V14.01,2013-07-18 17:46:00,
2013-07-18 10:51:00,73.0,42.3,26.22,ENE,68,4.9,4.9,33,0.00,,---,0.00,VWS V14.01,2013-07-18 17:51:00,
2013-07-18 10:56:00,73.2,42.4,26.22,ENE,68,3.6,6.3,33,0.00,,---,0.00,VWS V14.01,2013-07-18 17:56:00,
2013-07-18 11:01:00,73.6,41.9,26.22,NW,315,2.7,2.7,32,0.00,,---,0.00,VWS V14.01,2013-07-18 18:01:00,
2013-07-18 11:06:00,74.1,42.4,26.22,NE,45,2.7,2.7,32,0.00,,---,0.00,VWS V14.01,2013-07-18 18:06:00,
2013-07-18 11:10:00,74.5,42.7,26.22,NNE,22,5.8,5.8,32,0.00,,---,0.00,VWS V14.01,2013-07-18 18:10:00,
2013-07-18 11:15:00,74.3,42.6,26.22,ESE,112,4.0,6.3,32,0.00,,---,0.00,VWS V14.01,2013-07-18 18:15:00,
2013-07-18 11:20:00,74.3,42.6,26.22,WNW,292,6.3,8.1,32,0.00,,---,0.00,VWS V14.01,2013-07-18 18:20:00,
2013-07-18 11:25:00,74.1,41.6,26.22,NNW,338,2.7,2.7,31,0.00,,---,0.00,VWS V14.01,2013-07-18 18:25:00,
2013-07-18 11:30:00,74.8,43.0,26.22,North,0,2.7,4.0,32,0.00,,---,0.00,VWS V14.01,2013-07-18 18:30:00,
2013-07-18 11:35:00,75.0,41.5,26.22,SE,135,3.1,3.1,30,0.00,,---,0.00,VWS V14.01,2013-07-18 18:35:00,
2013-07-18 11:40:00,75.7,42.1,26.22,NE,45,4.9,4.9,30,0.00,,---,0.00,VWS V14.01,2013-07-18 18:40:00,
2013-07-18 11:45:00,76.1,42.5,26.22,East,90,2.7,3.1,30,0.00,,---,0.00,VWS V14.01,2013-07-18 18:45:00,
2013-07-18 11:50:00,76.1,39.7,26.22,ESE,112,4.9,4.9,27,0.00,,---,0.00,VWS V14.01,2013-07-18 18:50:00,
2013-07-18 11:55:00,75.7,40.3,26.22,East,90,6.3,6.3,28,0.00,,---,0.00,VWS V14.01,2013-07-18 18:55:00,
2013-07-18 12:00:00,75.7,39.4,26.22,East,90,4.9,5.4,27,0.00,,---,0.00,VWS V14.01,2013-07-18 19:00:00,
2013-07-18 12:05:00,75.4,39.1,26.22,WNW,292,5.4,5.4,27,0.00,,---,0.00,VWS V14.01,2013-07-18 19:05:00,
2013-07-18 12:10:00,76.8,40.3,26.22,SSE,158,3.6,3.6,27,0.00,,---,0.00,VWS V14.01,2013-07-18 19:10:00,
2013-07-18 12:15:00,78.1,38.4,26.22,WSW,248,4.9,4.9,24,0.00,,---,0.00,VWS V14.01,2013-07-18 19:15:00,
2013-07-18 12:20:00,78.3,37.5,26.22,East,90,6.3,6.3,23,0.00,,---,0.00,VWS V14.01,2013-07-18 19:20:00,
2013-07-18 12:25:00,77.7,37.0,26.22,SW,225,7.6,8.7,23,0.00,,---,0.00,VWS V14.01,2013-07-18 19:25:00,
2013-07-18 12:30:00,76.6,36.1,26.22,West,270,5.8,5.8,23,0.00,,---,0.00,VWS V14.01,2013-07-18 19:30:00,
2013-07-18 12:35:00,77.7,38.1,26.22,SW,225,5.4,5.4,24,0.00,,---,0.00,VWS V14.01,2013-07-18 19:35:00,
2013-07-18 12:40:00,78.4,36.5,26.22,SW,225,7.6,7.6,22,0.00,,---,0.00,VWS V14.01,2013-07-18 19:40:00,
2013-07-18 12:45:00,79.0,38.1,26.22,East,90,2.2,4.0,23,0.00,,---,0.00,VWS V14.01,2013-07-18 19:45:00,
2013-07-18 12:50:00,79.0,38.1,26.22,ENE,68,5.8,6.3,23,0.00,,---,0.00,VWS V14.01,2013-07-18 19:50:00,
2013-07-18 12:55:00,78.3,37.5,26.22,North,0,2.7,2.7,23,0.00,,---,0.00,VWS V14.01,2013-07-18 19:55:00,
2013-07-18 13:00:00,79.2,37.1,26.22,SW,225,4.0,6.3,22,0.00,,---,0.00,VWS V14.01,2013-07-18 20:00:00,
2013-07-18 13:05:00,80.2,38.0,26.22,East,90,4.0,5.8,22,0.00,,---,0.00,VWS V14.01,2013-07-18 20:05:00,
2013-07-18 13:10:00,80.6,37.1,26.22,NE,45,4.0,4.0,21,0.00,,---,0.00,VWS V14.01,2013-07-18 20:10:00,
2013-07-18 13:15:00,81.3,37.7,26.22,NE,45,3.6,3.6,21,0.00,,---,0.00,VWS V14.01,2013-07-18 20:15:00,
2013-07-18 13:20:00,81.7,38.0,26.22,ESE,112,5.4,5.4,21,0.00,,---,0.00,VWS V14.01,2013-07-18 20:20:00,
2013-07-18 13:25:00,81.0,37.4,26.22,ESE,112,4.9,4.9,21,0.00,,---,0.00,VWS V14.01,2013-07-18 20:25:00,
2013-07-18 13:30:00,80.6,37.1,26.22,NW,315,2.7,2.7,21,0.00,,---,0.00,VWS V14.01,2013-07-18 20:30:00,
2013-07-18 13:31:00,80.4,37.0,26.22,West,270,5.4,5.4,21,0.00,,---,0.00,VWS V14.01,2013-07-18 20:31:00,
2013-07-18 13:36:00,81.5,37.8,26.22,West,270,3.1,3.1,21,0.00,,---,0.00,VWS V14.01,2013-07-18 20:36:00,
2013-07-18 13:41:00,81.3,36.5,26.22,NE,45,3.1,7.2,20,0.00,,---,0.00,VWS V14.01,2013-07-18 20:41:00,
2013-07-18 13:46:00,81.1,36.3,26.22,West,270,3.6,3.6,20,0.00,,---,0.00,VWS V14.01,2013-07-18 20:46:00,
2013-07-18 13:51:00,81.3,36.5,26.22,West,270,8.1,8.1,20,0.00,,---,0.00,VWS V14.01,2013-07-18 20:51:00,
2013-07-18 13:56:00,81.1,36.3,26.22,WSW,248,8.3,11.0,20,0.00,,---,0.00,VWS V14.01,2013-07-18 20:56:00,
2013-07-18 14:01:00,79.7,35.1,26.22,West,270,8.3,8.7,20,0.00,,---,0.00,VWS V14.01,2013-07-18 21:01:00,
2013-07-18 14:06:00,80.1,35.4,26.22,SW,225,3.1,5.8,20,0.00,,---,0.00,VWS V14.01,2013-07-18 21:06:00,
2013-07-18 14:11:00,80.4,35.7,26.22,NNW,338,4.9,5.8,20,0.00,,---,0.00,VWS V14.01,2013-07-18 21:11:00,
2013-07-18 14:16:00,80.8,34.7,26.22,SW,225,8.7,12.3,19,0.00,,---,0.00,VWS V14.01,2013-07-18 21:16:00,
2013-07-18 14:21:00,80.6,34.6,26.22,South,180,4.0,6.3,19,0.00,,---,0.00,VWS V14.01,2013-07-18 21:21:00,
2013-07-18 14:26:00,81.0,34.9,26.19,NNW,338,0.0,5.4,19,0.00,,---,0.00,VWS V14.01,2013-07-18 21:26:00,
2013-07-18 14:31:00,80.6,34.6,26.19,West,270,2.7,4.0,19,0.00,,---,0.00,VWS V14.01,2013-07-18 21:31:00,
2013-07-18 14:36:00,81.3,32.4,26.19,SW,225,8.7,8.7,17,0.00,,---,0.00,VWS V14.01,2013-07-18 21:36:00,
2013-07-18 14:41:00,81.7,32.7,26.19,South,180,4.9,4.9,17,0.00,,---,0.00,VWS V14.01,2013-07-18 21:41:00,
2013-07-18 14:46:00,81.9,32.8,26.19,SW,225,9.6,9.6,17,0.00,,---,0.00,VWS V14.01,2013-07-18 21:46:00,
2013-07-18 14:51:00,82.0,33.0,26.19,SW,225,9.6,9.6,17,0.00,,---,0.00,VWS V14.01,2013-07-18 21:51:00,
2013-07-18 14:56:00,82.0,33.0,26.19,SW,225,8.7,8.7,17,0.00,,---,0.00,VWS V14.01,2013-07-18 21:56:00,
2013-07-18 15:01:00,82.6,31.9,26.19,SW,225,7.2,7.2,16,0.00,,---,0.00,VWS V14.01,2013-07-18 22:01:00,
2013-07-18 15:06:00,83.5,32.6,26.19,WSW,248,5.4,5.4,16,0.00,,---,0.00,VWS V14.01,2013-07-18 22:06:00,
2013-07-18 15:11:00,83.1,32.3,26.19,SW,225,3.1,5.4,16,0.00,,---,0.00,VWS V14.01,2013-07-18 22:11:00,
2013-07-18 15:16:00,84.6,33.5,26.19,SW,225,7.6,7.6,16,0.00,,---,0.00,VWS V14.01,2013-07-18 22:16:00,
2013-07-18 15:21:00,83.8,29.6,26.19,SW,225,5.4,5.4,14,0.00,,---,0.00,VWS V14.01,2013-07-18 22:21:00,
2013-07-18 15:26:00,83.5,29.3,26.19,South,180,6.3,6.3,14,0.00,,---,0.00,VWS V14.01,2013-07-18 22:26:00,
2013-07-18 15:31:00,83.3,29.2,26.19,WSW,248,7.6,8.7,14,0.00,,---,0.00,VWS V14.01,2013-07-18 22:31:00,
2013-07-18 15:36:00,83.5,29.3,26.19,SW,225,9.6,10.1,14,0.00,,---,0.00,VWS V14.01,2013-07-18 22:36:00,
2013-07-18 15:41:00,83.3,29.2,26.19,SW,225,7.2,7.2,14,0.00,,---,0.00,VWS V14.01,2013-07-18 22:41:00,
2013-07-18 15:46:00,83.3,29.2,26.19,SSW,202,2.7,4.9,14,0.00,,---,0.00,VWS V14.01,2013-07-18 22:46:00,
2013-07-18 15:51:00,82.8,32.0,26.19,NW,315,3.6,8.3,16,0.00,,---,0.00,VWS V14.01,2013-07-18 22:51:00,
2013-07-18 15:56:00,83.7,29.5,26.19,WSW,248,5.8,11.4,14,0.00,,---,0.00,VWS V14.01,2013-07-18 22:56:00,
2013-07-18 16:01:00,83.5,29.3,26.19,WSW,248,15.4,15.4,14,0.00,,---,0.00,VWS V14.01,2013-07-18 23:01:00,
2013-07-18 16:06:00,84.0,29.8,26.19,SSW,202,6.3,6.7,14,0.00,,---,0.00,VWS V14.01,2013-07-18 23:06:00,
2013-07-18 16:11:00,84.9,28.6,26.19,WSW,248,3.6,4.0,13,0.00,,---,0.00,VWS V14.01,2013-07-18 23:11:00,
2013-07-18 16:16:00,85.3,28.9,26.19,West,270,2.7,2.7,13,0.00,,---,0.00,VWS V14.01,2013-07-18 23:16:00,
2013-07-18 16:21:00,85.6,29.2,26.19,SW,225,3.6,6.3,13,0.00,,---,0.00,VWS V14.01,2013-07-18 23:21:00,
2013-07-18 16:26:00,84.6,28.4,26.19,SW,225,8.1,9.6,13,0.00,,---,0.00,VWS V14.01,2013-07-18 23:26:00,
2013-07-18 16:31:00,84.2,28.1,26.19,West,270,3.6,4.0,13,0.00,,---,0.00,VWS V14.01,2013-07-18 23:31:00,
2013-07-18 16:36:00,84.6,28.4,26.19,SW,225,7.2,10.1,13,0.00,,---,0.00,VWS V14.01,2013-07-18 23:36:00,
2013-07-18 16:41:00,83.3,29.2,26.19,SW,225,6.3,8.1,14,0.00,,---,0.00,VWS V14.01,2013-07-18 23:41:00,
2013-07-18 16:46:00,83.8,29.6,26.19,SW,225,8.7,9.6,14,0.00,,---,0.00,VWS V14.01,2013-07-18 23:46:00,
2013-07-18 16:51:00,83.7,29.5,26.19,South,180,7.6,7.6,14,0.00,,---,0.00,VWS V14.01,2013-07-18 23:51:00,
2013-07-18 16:56:00,83.8,29.6,26.19,West,270,4.5,4.5,14,0.00,,---,0.00,VWS V14.01,2013-07-18 23:56:00,
2013-07-18 17:01:00,84.6,28.4,26.19,NNE,22,4.9,4.9,13,0.00,,---,0.00,VWS V14.01,2013-07-19 00:01:00,
2013-07-18 17:06:00,84.4,28.2,26.19,NE,45,5.4,6.3,13,0.00,,---,0.00,VWS V14.01,2013-07-19 00:06:00,
2013-07-18 17:11:00,84.9,28.6,26.19,South,180,2.7,3.6,13,0.00,,---,0.00,VWS V14.01,2013-07-19 00:11:00,
2013-07-18 17:16:00,84.0,29.8,26.19,South,180,6.7,6.7,14,0.00,,---,0.00,VWS V14.01,2013-07-19 00:16:00,
2013-07-18 17:21:00,83.5,29.3,26.19,SW,225,2.7,4.9,14,0.00,,---,0.00,VWS V14.01,2013-07-19 00:21:00,
2013-07-18 17:26:00,84.4,33.3,26.16,SE,135,5.8,5.8,16,0.00,,---,0.00,VWS V14.01,2013-07-19 00:26:00,
2013-07-18 17:31:00,84.4,28.2,26.16,SW,225,7.2,9.6,13,0.00,,---,0.00,VWS V14.01,2013-07-19 00:31:00,
2013-07-18 17:36:00,84.0,29.8,26.16,SW,225,8.1,8.1,14,0.00,,---,0.00,VWS V14.01,2013-07-19 00:36:00,
2013-07-18 17:41:00,84.4,28.2,26.16,SW,225,5.8,5.8,13,0.00,,---,0.00,VWS V14.01,2013-07-19 00:41:00,
2013-07-18 17:46:00,83.7,29.5,26.16,WSW,248,0.0,5.8,14,0.00,,---,0.00,VWS V14.01,2013-07-19 00:46:00,
2013-07-18 17:51:00,84.9,28.6,26.16,South,180,4.0,5.4,13,0.00,,---,0.00,VWS V14.01,2013-07-19 00:51:00,
2013-07-18 17:56:00,85.3,28.9,26.16,South,180,8.3,8.3,13,0.00,,---,0.00,VWS V14.01,2013-07-19 00:56:00,
2013-07-18 18:01:00,84.2,28.1,26.16,SSW,202,4.9,5.4,13,0.00,,---,0.00,VWS V14.01,2013-07-19 01:01:00,
2013-07-18 18:06:00,84.9,28.6,26.16,West,270,4.9,4.9,13,0.00,,---,0.00,VWS V14.01,2013-07-19 01:06:00,
2013-07-18 18:11:00,84.2,28.1,26.16,WSW,248,5.4,6.3,13,0.00,,---,0.00,VWS V14.01,2013-07-19 01:11:00,
2013-07-18 18:16:00,84.4,28.2,26.16,WNW,292,3.1,4.0,13,0.00,,---,0.00,VWS V14.01,2013-07-19 01:16:00,
2013-07-18 18:21:00,85.3,28.9,26.16,WNW,292,4.0,4.0,13,0.00,,---,0.00,VWS V14.01,2013-07-19 01:21:00,
2013-07-18 18:26:00,84.6,28.4,26.19,West,270,3.1,4.9,13,0.00,,---,0.00,VWS V14.01,2013-07-19 01:26:00,
2013-07-18 18:31:00,83.7,29.5,26.19,West,270,2.7,5.4,14,0.00,,---,0.00,VWS V14.01,2013-07-19 01:31:00,
2013-07-18 18:36:00,84.0,29.8,26.19,WSW,248,3.6,5.8,14,0.00,,---,0.00,VWS V14.01,2013-07-19 01:36:00,
2013-07-18 18:41:00,84.2,28.1,26.16,South,180,5.4,5.4,13,0.00,,---,0.00,VWS V14.01,2013-07-19 01:41:00,
2013-07-18 18:46:00,84.4,28.2,26.16,SE,135,3.6,3.6,13,0.00,,---,0.00,VWS V14.01,2013-07-19 01:46:00,
2013-07-18 18:51:00,84.0,29.8,26.16,SW,225,5.4,5.4,14,0.00,,---,0.00,VWS V14.01,2013-07-19 01:51:00,
2013-07-18 18:56:00,83.7,29.5,26.16,WSW,248,2.7,3.1,14,0.00,,---,0.00,VWS V14.01,2013-07-19 01:56:00,
2013-07-18 19:01:00,83.8,29.6,26.16,SW,225,6.3,6.3,14,0.00,,---,0.00,VWS V14.01,2013-07-19 02:01:00,
2013-07-18 19:06:00,83.1,29.0,26.16,SW,225,5.8,8.1,14,0.00,,---,0.00,VWS V14.01,2013-07-19 02:06:00,
2013-07-18 19:11:00,82.6,28.6,26.19,WSW,248,5.4,7.6,14,0.00,,---,0.00,VWS V14.01,2013-07-19 02:11:00,
2013-07-18 19:16:00,82.8,28.8,26.19,West,270,4.0,5.8,14,0.00,,---,0.00,VWS V14.01,2013-07-19 02:16:00,
2013-07-18 19:21:00,82.6,28.6,26.19,WNW,292,3.6,3.6,14,0.00,,---,0.00,VWS V14.01,2013-07-19 02:21:00,
2013-07-18 19:26:00,82.6,28.6,26.19,WNW,292,4.9,4.9,14,0.00,,---,0.00,VWS V14.01,2013-07-19 02:26:00,
2013-07-18 19:31:00,82.2,28.3,26.19,NW,315,3.6,5.8,14,0.00,,---,0.00,VWS V14.01,2013-07-19 02:31:00,
2013-07-18 19:36:00,82.2,28.3,26.19,NW,315,2.7,2.7,14,0.00,,---,0.00,VWS V14.01,2013-07-19 02:36:00,
2013-07-18 19:41:00,82.0,28.2,26.19,West,270,4.0,4.0,14,0.00,,---,0.00,VWS V14.01,2013-07-19 02:41:00,
2013-07-18 19:46:00,81.9,28.0,26.19,West,270,2.7,4.0,14,0.00,,---,0.00,VWS V14.01,2013-07-19 02:46:00,
2013-07-18 19:51:00,81.1,27.5,26.19,West,270,3.1,3.1,14,0.00,,---,0.00,VWS V14.01,2013-07-19 02:51:00,
2013-07-18 19:56:00,81.3,27.6,26.19,West,270,3.1,3.1,14,0.00,,---,0.00,VWS V14.01,2013-07-19 02:56:00,
2013-07-18 20:01:00,80.8,32.0,26.19,NW,315,0.0,2.2,17,0.00,,---,0.00,VWS V14.01,2013-07-19 03:01:00,
2013-07-18 20:06:00,80.1,28.3,26.19,NW,315,2.7,3.1,15,0.00,,---,0.00,VWS V14.01,2013-07-19 03:06:00,
2013-07-18 20:11:00,78.8,30.4,26.19,North,0,4.9,4.9,17,0.00,,---,0.00,VWS V14.01,2013-07-19 03:11:00,
2013-07-18 20:16:00,78.1,31.2,26.19,NNW,338,2.7,4.0,18,0.00,,---,0.00,VWS V14.01,2013-07-19 03:16:00,
2013-07-18 20:21:00,77.2,30.4,26.19,North,0,3.6,5.4,18,0.00,,---,0.00,VWS V14.01,2013-07-19 03:21:00,
2013-07-18 20:26:00,76.3,29.7,26.19,North,0,4.9,4.9,18,0.00,,---,0.00,VWS V14.01,2013-07-19 03:26:00,
2013-07-18 20:31:00,75.4,31.6,26.19,North,0,3.6,4.9,20,0.00,,---,0.00,VWS V14.01,2013-07-19 03:31:00,
2013-07-18 20:36:00,74.1,31.7,26.19,NNW,338,3.1,3.1,21,0.00,,---,0.00,VWS V14.01,2013-07-19 03:36:00,
2013-07-18 20:41:00,73.2,31.0,26.19,North,0,5.4,5.4,21,0.00,,---,0.00,VWS V14.01,2013-07-19 03:41:00,
2013-07-18 20:46:00,72.7,31.7,26.19,North,0,5.4,5.4,22,0.00,,---,0.00,VWS V14.01,2013-07-19 03:46:00,
2013-07-18 20:51:00,72.3,31.4,26.19,North,0,4.9,6.3,22,0.00,,---,0.00,VWS V14.01,2013-07-19 03:51:00,
2013-07-18 20:56:00,72.1,31.2,26.19,North,0,4.9,5.8,22,0.00,,---,0.00,VWS V14.01,2013-07-19 03:56:00,
2013-07-18 21:01:00,71.8,30.9,26.19,North,0,4.0,5.4,22,0.00,,---,0.00,VWS V14.01,2013-07-19 04:01:00,
2013-07-18 21:06:00,71.2,30.5,26.19,North,0,5.8,5.8,22,0.00,,---,0.00,VWS V14.01,2013-07-19 04:06:00,
2013-07-18 21:11:00,71.4,30.6,26.19,North,0,5.4,5.4,22,0.00,,---,0.00,VWS V14.01,2013-07-19 04:11:00,
2013-07-18 21:16:00,70.9,30.2,26.19,NNW,338,4.0,4.0,22,0.00,,---,0.00,VWS V14.01,2013-07-19 04:16:00,
2013-07-18 21:21:00,70.5,29.9,26.19,North,0,6.7,6.7,22,0.00,,---,0.00,VWS V14.01,2013-07-19 04:21:00,
2013-07-18 21:26:00,70.2,29.6,26.16,North,0,4.9,5.4,22,0.00,,---,0.00,VWS V14.01,2013-07-19 04:26:00,
2013-07-18 21:31:00,70.0,29.4,26.16,North,0,5.8,5.8,22,0.00,,---,0.00,VWS V14.01,2013-07-19 04:31:00,
2013-07-18 21:36:00,70.0,29.4,26.16,North,0,5.8,5.8,22,0.00,,---,0.00,VWS V14.01,2013-07-19 04:36:00,
2013-07-18 21:41:00,69.8,29.3,26.16,North,0,5.8,5.8,22,0.00,,---,0.00,VWS V14.01,2013-07-19 04:41:00,
2013-07-18 21:46:00,69.8,29.3,26.16,North,0,5.8,5.8,22,0.00,,---,0.00,VWS V14.01,2013-07-19 04:46:00,
2013-07-18 21:51:00,69.8,29.3,26.16,North,0,5.8,5.8,22,0.00,,---,0.00,VWS V14.01,2013-07-19 04:51:00,
2013-07-18 21:56:00,69.8,29.3,26.16,North,0,4.9,4.9,22,0.00,,---,0.00,VWS V14.01,2013-07-19 04:56:00,
2013-07-18 22:01:00,69.6,29.1,26.16,NNW,338,4.9,5.4,22,0.00,,---,0.00,VWS V14.01,2013-07-19 05:01:00,
2013-07-18 22:06:00,68.9,28.5,26.16,North,0,5.8,5.8,22,0.00,,---,0.00,VWS V14.01,2013-07-19 05:06:00,
2013-07-18 22:11:00,69.3,28.8,26.16,North,0,5.8,6.3,22,0.00,,---,0.00,VWS V14.01,2013-07-19 05:11:00,
2013-07-18 22:16:00,69.3,28.8,26.16,North,0,6.3,6.3,22,0.00,,---,0.00,VWS V14.01,2013-07-19 05:16:00,
2013-07-18 22:21:00,69.1,28.7,26.16,North,0,7.2,7.2,22,0.00,,---,0.00,VWS V14.01,2013-07-19 05:21:00,
2013-07-18 22:26:00,69.3,26.5,26.16,North,0,6.3,6.3,20,0.00,,---,0.00,VWS V14.01,2013-07-19 05:26:00,
2013-07-18 22:31:00,69.3,26.5,26.16,NNW,338,5.8,5.8,20,0.00,,---,0.00,VWS V14.01,2013-07-19 05:31:00,
2013-07-18 22:36:00,69.1,26.4,26.16,NNW,338,5.8,5.8,20,0.00,,---,0.00,VWS V14.01,2013-07-19 05:36:00,
2013-07-18 22:41:00,69.1,26.4,26.13,North,0,5.8,6.3,20,0.00,,---,0.00,VWS V14.01,2013-07-19 05:41:00,
2013-07-18 22:46:00,68.9,26.2,26.13,North,0,5.4,6.3,20,0.00,,---,0.00,VWS V14.01,2013-07-19 05:46:00,
2013-07-18 22:51:00,68.5,25.9,26.13,North,0,4.9,5.4,20,0.00,,---,0.00,VWS V14.01,2013-07-19 05:51:00,
2013-07-18 22:56:00,68.2,25.6,26.16,North,0,5.8,5.8,20,0.00,,---,0.00,VWS V14.01,2013-07-19 05:56:00,
2013-07-18 23:01:00,67.6,25.2,26.16,North,0,4.9,5.4,20,0.00,,---,0.00,VWS V14.01,2013-07-19 06:01:00,
2013-07-18 23:06:00,67.5,25.0,26.16,North,0,4.9,5.4,20,0.00,,---,0.00,VWS V14.01,2013-07-19 06:06:00,
2013-07-18 23:11:00,67.3,24.9,26.13,North,0,5.4,5.4,20,0.00,,---,0.00,VWS V14.01,2013-07-19 06:11:00,
2013-07-18 23:16:00,67.1,27.0,26.13,North,0,6.3,6.3,22,0.00,,---,0.00,VWS V14.01,2013-07-19 06:16:00,
2013-07-18 23:21:00,67.1,27.0,26.13,North,0,4.9,6.3,22,0.00,,---,0.00,VWS V14.01,2013-07-19 06:21:00,
2013-07-18 23:26:00,67.1,27.0,26.13,North,0,5.4,5.4,22,0.00,,---,0.00,VWS V14.01,2013-07-19 06:26:00,
2013-07-18 23:31:00,67.1,27.0,26.13,North,0,5.4,5.8,22,0.00,,---,0.00,VWS V14.01,2013-07-19 06:31:00,
2013-07-18 23:35:00,67.1,27.0,26.13,North,0,5.4,5.8,22,0.00,,---,0.00,VWS V14.01,2013-07-19 06:35:00,
2013-07-18 23:40:00,66.9,26.9,26.13,North,0,6.7,6.7,22,0.00,,---,0.00,VWS V14.01,2013-07-19 06:40:00,
2013-07-18 23:46:00,66.9,27.9,26.13,North,0,5.8,5.8,23,0.00,,---,0.00,VWS V14.01,2013-07-19 06:46:00,
2013-07-18 23:50:00,67.1,28.1,26.13,North,0,5.8,6.3,23,0.00,,---,0.00,VWS V14.01,2013-07-19 06:50:00,
2013-07-18 23:56:00,67.3,28.2,26.13,North,0,5.8,6.3,23,0.00,,---,0.00,VWS V14.01,2013-07-19 06:56:00,